User: anonymous   Login
Location: Amon Carter Post Office
(32.8281°N, 97.0484°W)
Time: 23:02:42
(UTC+00:00)
Language:

OAO 2 Rocket - Orbit

View from above orbital plane
View from above orbital plane
View from above satellite
View from above satellite

Ground track
Ground track

The orbit data is extracted from the following two-line orbital elements,

1  3598U 68110B   22146.48527650  .00000436  00000-0  10374-3 0  9994
2  3598  34.9923 226.2926 0048557 106.9635 253.6387 14.54685550829304
Epoch (UTC): 26 May 2022 11:38:47
Eccentricity: 0.0048557
inclination: 34.9923°
perigee height: 676 km
apogee height: 745 km
right ascension of ascending node: 226.2926°
argument of perigee: 106.9635°
revolutions per day: 14.54685550
mean anomaly at epoch: 253.6387°
orbit number at epoch: 82930

The dashed part of the orbit path shows where the satellite is in the earth's shadow,  

DLR